This is the latest recevied weather packets stored in our database for station/object K7LER. If no packets are shown the sender has not sent any weather packets the latest 10 day(s).
| Time | Temp. | Humidity | Pressure | Rain* | Wind** | Luminosity | Snow |
|---|---|---|---|---|---|---|---|
| 1777920370 | 20.56° C | 57% | 1011 hPa | 0 mm | - | 777 W/m² | - |
| 1777920034 | 20.56° C | 59% | 1011 hPa | 0 mm | - | 779 W/m² | - |
| 1777919734 | 20.56° C | 59% | 1011 hPa | 0 mm | - | 789 W/m² | - |
| 1777919452 | 20° C | 59% | 1011.1 hPa | 0 mm | - | 817 W/m² | - |
| 1777919133 | 20° C | 59% | 1011.1 hPa | 0 mm | - | 722 W/m² | - |
| 1777918836 | 20° C | 59% | 1011.1 hPa | 0 mm | - | 118 W/m² | - |
| 1777918551 | 19.44° C | 60% | 1011.1 hPa | 0 mm | - | 271 W/m² | - |
| 1777918234 | 19.44° C | 60% | 1011.2 hPa | 0 mm | - | 77 W/m² | - |
| 1777917934 | 18.89° C | 60% | 1011.2 hPa | 0 mm | - | 70 W/m² | - |
| 1777917650 | 18.89° C | 61% | 1011.2 hPa | 0 mm | - | 69 W/m² | - |
| 1777917334 | 18.33° C | 62% | 1011.2 hPa | 0 mm | - | 63 W/m² | - |
| 1777917035 | 18.33° C | 62% | 1011.2 hPa | 0 mm | - | 58 W/m² | - |
| 1777916743 | 18.89° C | 61% | 1011.3 hPa | 0 mm | - | 56 W/m² | - |
| 1777916434 | 18.89° C | 61% | 1011.3 hPa | 0 mm | - | 54 W/m² | - |
| 1777916133 | 18.33° C | 60% | 1011.2 hPa | 0 mm | - | 53 W/m² | - |
| 1777915842 | 18.33° C | 61% | 1011.1 hPa | 0 mm | - | 51 W/m² | - |
| 1777915535 | 18.33° C | 61% | 1011.1 hPa | 0 mm | - | 47 W/m² | - |
| 1777915234 | 18.33° C | 62% | 1011.1 hPa | 0 mm | - | 44 W/m² | - |
| 1777914941 | 17.78° C | 63% | 1011.1 hPa | 0 mm | - | 44 W/m² | - |
| 1777914635 | 17.78° C | 64% | 1011.1 hPa | 0 mm | - | 44 W/m² | - |
| 1777914335 | 17.22° C | 66% | 1011.1 hPa | 0 mm | - | 42 W/m² | - |
| 1777914041 | 17.22° C | 66% | 1011 hPa | 0 mm | - | 44 W/m² | - |
| 1777913733 | 17.22° C | 67% | 1011 hPa | 0 mm | - | 44 W/m² | - |
| 1777913436 | 16.67° C | 68% | 1010.9 hPa | 0 mm | - | 46 W/m² | - |
| 1777913149 | - | - | 1011 hPa | 0 mm | - | - | - |
* Rain latest hour (hover to see other rain measurements)
** Current wind speed in m/s (hover to see current wind gust speed)